Weather Roundup
Issued by NWS

Home | Current Version | Previous Version | Graphics & Text | Print | Product List | Glossary Off
Versions: 1 2 3 4 5 6 7 8 9 10 11 12 13 14 15 16 17 18 19 20 21 22 23 24 25 26 27 28 29 30 31 32 33 34 35 36 37 38 39 40 41 42 43 44 45 46 47 48 49 50

000
NZUS93 KARX 250359
HRRWXR

CURRENT HOURLY OBSERVATIONS ACROSS
MUCH OF THE UPPER MISSISSIPPI VALLEY
NATIONAL WEATHER SERVICE LA CROSSE WI
1100 PM CDT SUN MAY 24 2015


...SOUTHEAST MINNESOTA...


CITY           SKY/WX    TMP DP  RH WIND       PRES   REMARKS
ROCHESTER      CLOUDY    59  58  96 SE12      29.81F FOG
ROCHESTER/MAYO CLOUDY    59  59 100 E8        29.80F
WINONA         CLOUDY    59  57  94 SE10      29.81F
AUSTIN         CLOUDY    61  59  94 SE10      29.77F FOG
ALBERT LEA     HVY RAIN  63  63 100 SE7       29.76F
DODGE CENTER   CLOUDY    61  59  94 SE10      29.79F FOG
PRESTON        LGT RAIN  58  57  96 E9        29.80F
OWATONNA       CLOUDY    61  59  94 E12       29.77F FOG
FARIBAULT      LGT RAIN  59  57  94 E6        29.78F
$$

...ELSEWHERE IN MINNESOTA...


CITY           SKY/WX    TMP DP  RH WIND       PRES   REMARKS
MINNEAPOLIS    LGT RAIN  58  57  97 E10       29.80F FOG
INTNL FALLS    CLOUDY    57  49  74 CALM      29.90S
DULUTH         LGT RAIN  59  55  87 E7        29.91F
RED WING       CLOUDY    57  57 100 E8        29.79F
REDWOOD FALLS  CLOUDY    59  57  93 E6        29.77F
MANKATO        CLOUDY    59  57  94 E12       29.76F
WORTHINGTON    CLOUDY    59  55  88 E7        29.77S
FAIRMONT       CLOUDY    61  55  82 S3        29.75S
$$

...SOUTHWEST WISCONSIN...


CITY           SKY/WX    TMP DP  RH WIND       PRES   REMARKS
LA CROSSE      CLOUDY    61  57  87 SE8       29.81F
PRAIRIE DU CHI CLOUDY    62  59  91 E10       29.81S FOG
BOSCOBEL       CLOUDY    60  58  92 NE5       29.84S FOG
LONE ROCK      NOT AVBL
PLATTEVILLE    CLOUDY    62  61  97 E12       29.85S
FORT MC COY    LGT RAIN  57  55  94 E7        29.85F
VIROQUA        CLOUDY    57  57 100 E12       29.84F
WIS DELLS      LGT RAIN  56  54  94 E6        29.88F
$$

...ELSEWHERE IN WISCONSIN...


CITY           SKY/WX    TMP DP  RH WIND       PRES   REMARKS
MILWAUKEE      LGT RAIN  57  53  86 W6        29.94R
MADISON        CLOUDY    59  57  93 SE3       29.89S FOG
GREEN BAY      CLOUDY    57  55  93 NE8       29.95F FOG
EAU CLAIRE     CLOUDY    57  55  93 E8        29.84F
BLACK RVR FLS  CLOUDY    57  57 100 E7        29.86F
MEDFORD        HVY RAIN  55  54  98 E7        29.91F
WAUSAU         LGT RAIN  55  54  96 E10       29.91F
WIS RAPIDS     LGT RAIN  57  53  86 E9        29.90F
MARSHFIELD     LGT RAIN  56  53  90 E9        29.89F FOG
RICE LAKE      RAIN      57  55  92 E9        29.89F
$$

...NORTHEAST IOWA...


CITY           SKY/WX    TMP DP  RH WIND       PRES   REMARKS
DECORAH        CLOUDY    61  61 100 E10       29.79F FOG
MASON CITY     CLOUDY    64  63  96 SE8       29.78F FOG
CHARLES CITY   CLOUDY    63  63 100 E9        29.79S FOG
OELWEIN        CLOUDY    66  64  94 SE15      29.79F FOG
$$

...ELSEWHERE IN IOWA...


CITY           SKY/WX    TMP DP  RH WIND       PRES   REMARKS
DES MOINES     LGT RAIN  67  63  87 SW6       29.79S
IOWA CITY      CLOUDY    67  66  97 S8        29.82S
FORT DODGE     CLOUDY    63  61  94 S3        29.78S
$$

...NORTHERN ILLINOIS...


CITY           SKY/WX    TMP DP  RH WIND       PRES   REMARKS
CHICAGO-OHARE  MOCLDY    66  62  87 S8        29.91F
CHICAGO-MIDWAY PTCLDY    75  63  66 S12       29.92F
MOLINE         CLOUDY    69  65  86 S10       29.85S
ROCKFORD       LGT RAIN  68  64  87 SW3       29.91R FOG
PEORIA         CLOUDY    72  66  81 W12       29.90R
$$

NOTE: "FAIR" INDICATES FEW OR NO CLOUDS BELOW 12,000 FEET WITH NO
SIGNIFICANT WEATHER AND/OR OBSTRUCTIONS TO VISIBILITY. WIND
SPEEDS ARE IN MILES-PER-HOUR.



USA.gov is the U.S. government's official web portal to all federal, state and local government web resources and services.